Retour au catalogue

CZ-2C R/B

ActifSSO
NORAD 62078·ROCKET BODY·🇨🇳 China

Lancé Nov 24, 2024 depuis Jiuquan Satellite Launch Center

Loading…

Prochains Passages (prochaines 24 heures)

TLE

FraisSource: Space-Track

Époque: Sep 13, 2026, 23:00 UTC

1 62078U 24218A   26256.95833641  .00004907  00000-0  19348-3 0  9998
2 62078  97.5334 273.0112 0044797  58.9252 301.6370 15.25118662 99986

Suivez CZ-2C R/B en temps réel avec AllMySat

Download on the App Store